IRNSS-1C

Last updated on Thu Nov 21 2024 00:02:42 GMT+0000 (Coordinated Universal Time)

1 40269U 14061A 24324.95437267 -.00000158 00000+0 00000+0 0 9994 2 40269 5.0557 101.0077 0018437 7.8061 17.1576 1.00268258 36936
UTC large
Height (km)
Speed (km/s)
/
Latitude / Longitude
Inclination (degrees)
Orbital Period (minutes)
Azimuth
Elevation
Range (km)
Doppler Factor

Next 0 passes for location: London (51.5072 / 0.1276)

Sorry there are no passes over London.